Home   Weather   Macapá   Past weeks

Flag for Brazil Past Weather in Macapá, Amapá, Brazil — Yesterday and Last 2 Weeks

Now
79 °F

Passing clouds.


Feels Like: 83 °F
Forecast: 78 / 89 °F
Wind: 5 mph from Northeast

Location: Macapa Airport

Current Time: Jan 19, 2018 at 3:32:50 am

Latest Report: Jan 19, 2018 at 1:00 am


Visibility: N/A

Pressure: 29.89 "Hg

Humidity: 94%

Dew Point: 77 °F

Location of MacapáLocation

Past Weather in Macapá — Graph

°F

Macapá Temperature Yesterday

Maximum temperature yesterday: 93 °F (at 2:00 pm)
Minimum temperature yesterday: 75 °F (at 7:22 am)
Average temperature yesterday: 82 °F

High & Low Weather Summary for the Past Weeks

 TemperatureHumidityPressure
High97 °F (Jan 4, 2:00 pm)100% (Jan 4, 4:00 am)29.98 "Hg (Jan 4, 4:00 am)
Low72 °F (Jan 11, 4:00 am)44% (Jan 4, 2:00 pm)29.77 "Hg (Jan 12, 2:00 pm)
Average82 °F82%29.87 "Hg
* Reported Jan 4 1:00 am — Jan 19 1:00 am, Macapá. Weather by CustomWeather, © 2018

Note: Actual official high and low records may vary slightly from our data, if they occured in-between our weather recording intervals... More about our weather records

Advertising

Macapá Weather History for the Previous 24 Hours

Scroll right to see more
 ConditionsComfort  
Time TempWeatherWind HumidityBarometerVisibility
1:00 am
Fri, Jan 19
79 °FPassing clouds.5 mph94%29.89 "HgN/A
12:00 am79 °FClear.6 mph94%29.89 "Hg10 mi
11:00 pm
Thu, Jan 18
81 °FClear.7 mph89%29.89 "Hg10 mi
10:00 pm81 °FClear.3 mph94%29.89 "Hg10 mi
9:00 pm81 °FClear.3 mph89%29.86 "Hg10 mi
8:00 pm82 °FOvercast.8 mph84%29.83 "HgN/A
7:00 pm82 °FMostly cloudy.8 mph84%29.83 "HgN/A
6:00 pm84 °FBroken clouds.9 mph79%29.83 "HgN/A
5:00 pm86 °FPartly sunny.12 mph70%29.80 "HgN/A
4:00 pm86 °FPartly sunny.12 mph70%29.80 "HgN/A
3:00 pm91 °FPartly sunny.12 mph59%29.83 "HgN/A
2:00 pm93 °FPartly sunny.9 mph56%29.86 "HgN/A
1:00 pm90 °FPartly sunny.9 mph59%29.89 "HgN/A
12:00 pm91 °FBroken clouds.9 mph59%29.92 "HgN/A
11:00 am90 °FBroken clouds.12 mph59%29.92 "HgN/A
10:00 am82 °FMore clouds than sun.8 mph79%29.95 "HgN/A
9:00 am79 °FMore clouds than sun.5 mph100%29.95 "HgN/A
8:00 am77 °FMore clouds than sun.5 mph100%29.92 "HgN/A
7:22 am75 °FThunderstorms. More clouds than sun.2 mph100%N/A3 mi
7:00 am77 °FLight rain. Broken clouds.6 mph100%N/A4 mi
6:00 am77 °FPassing clouds.3 mph100%29.83 "HgN/A
5:00 am77 °FPassing clouds.2 mph100%29.83 "HgN/A
4:00 am79 °FPassing clouds.7 mph94%29.83 "HgN/A
3:00 am79 °FPassing clouds.5 mph94%29.86 "HgN/A
Weather by CustomWeather, © 2018

See weather overview